Regional Weather Roundup
Issued by NWS

Home | Current Version | Previous Version | Graphics & Text | Print | Product List | Glossary On
Versions: 1 2 3 4 5 6 7 8 9 10 11 12 13 14 15 16 17 18 19 20 21 22 23 24 25 26 27 28 29 30 31 32 33 34 35 36 37 38 39 40 41 42 43 44 45 46 47 48 49 50
000
ASUS43 KIND 202009
RWRIN

WEATHER ROUNDUP FOR INDIANA
NATIONAL WEATHER SERVICE INDIANAPOLIS IN
400 PM EDT MON APR 20 2015

NOTE: "FAIR" INDICATES FEW OR NO CLOUDS BELOW 12,000 FEET WITH NO
SIGNIFICANT WEATHER AND/OR OBSTRUCTIONS TO VISIBILITY.

* - STATION DOES NOT REPORT WEATHER SUCH AS PRECIPITATION OR FOG.

+ - STATION NOT QUALITY CONTROLLED BY THE NATIONAL WEATHER SERVICE.
    USE DATA WITH CAUTION...ESPECIALLY DEWPOINT AND RELATIVE
    HUMIDITY OBSERVATIONS.

INZ001>003-010>013-019-020-202100-
NORTHWEST INDIANA

CITY           SKY/WX    TMP DP  RH WIND       PRES   REMARKS
GARY /AIRPORT/ CLOUDY    50  34  53 W32G45    29.52R
KNOX *+        CLOUDY    46  32  57 W21G26    29.51R
LA PORTE +     CLOUDY    47  41  77 W20G29    29.51R
MICHIGAN CITY+ CLOUDY    45  36  70 W21G31    29.50R
MONTICELLO +   CLOUDY    49  43  80 W16G22    29.56R
RENSSELAER +   CLOUDY    50  41  71 W28G36    29.56R
VALPARAISO     CLOUDY    48  38  68 W26G36    29.52R

$$

LMZ046-743>745-202100-
SOUTHERN LAKE MICHIGAN

STATION/POSITION TIME  TEMP    WIND        PRES    WAVE
                       AIR SEA DIR/SP/G            HT
                 (UTC) (F)     (DEG/KT/KT) (MB)    (FT)
BURNS HARBOR     2000   47     260/ 26/ 32  999.3R
MICHIGAN CITY    1900   46     240/ 28/ 31   N/A
5NW MICH CITY    2000   45 44  270/ 19/ 27   N/A     6

$$

INZ004-005-014>016-021>024-202100-
NORTH CENTRAL INDIANA

CITY           SKY/WX    TMP DP  RH WIND       PRES   REMARKS
ELKHART        CLOUDY    48  39  71 W17G29    29.48R
GOSHEN         CLOUDY    47  41  80 W24G32    29.48R
LOGANSPORT +   LGT RAIN  46  45  93 W20G28    29.57R
PERU/GRISSOM   LGT RAIN  47  44  90 W23G29    29.56R
ROCHESTER +    PTSUNNY   50  43  76 W20G26    29.54R
SOUTH BEND     CLOUDY    49  39  68 W17       29.48R
WARSAW +       CLOUDY    46  41  81 W17G28    29.50R

$$

INZ006>009-017-018-025>027-202100-
NORTHEAST INDIANA

CITY           SKY/WX    TMP DP  RH WIND       PRES   REMARKS
ANGOLA *+      CLOUDY    48  43  81 W16       29.45R
AUBURN +       LGT RAIN  48  43  81 SW16G29   29.49R
FORT WAYNE     LGT RAIN  49  45  86 W22G33    29.51R
HUNTINGTON +   CLOUDY    49  40  71 W22G37    29.53R

$$

INZ028-029-035-036-043>045-051>053-202100-
WEST CENTRAL INDIANA

CITY           SKY/WX    TMP DP  RH WIND       PRES   REMARKS
CRAWFORDSVL +  CLOUDY    50  33  51 W25G35    29.61R
GREENCASTLE +  CLOUDY    52  34  50 W14G26    29.63R
LAFAYETTE      CLOUDY    50  38  63 W24G36    29.58R
TERRE HAUTE    CLOUDY    54  37  52 W15G29    29.65R

$$

INZ030>032-037>040-046>048-054>057-064-065-202100-
CENTRAL INDIANA

CITY           SKY/WX    TMP DP  RH WIND       PRES   REMARKS
ANDERSON       PTSUNNY   52  37  58 W17G35    29.59R
CP ATTERBURY + PTSUNNY   55  41  58 W16G24    29.63R
COLUMBUS       CLOUDY    55  41  58 W22G28    29.62R
FISHERS *+     CLOUDY    50  43  76 W23G30    29.61R
FRANKFORT +    PTSUNNY   48  43  81 SW20G26   29.61R
GREENWOOD *+   CLOUDY    54  39  58 W25G36    29.62R
INDIANAPOLIS   PTSUNNY   53  40  61 W29G35    29.60R
-EAGLE CREEK   CLOUDY    51  40  65 W15G37    29.60R
KOKOMO *+      CLOUDY    46  41  81 W20G28    29.58R
MARION +       CLOUDY    47  45  90 W23       29.58R FOG
MT COMFORT *+  MOSUNNY   54  36  50 W24       29.60R
SHELBYVILLE    CLOUDY    54  44  69 SW20G30   29.60R
ZIONSVILLE +   CLOUDY    51  41  69 W16G24    29.60R

$$

INZ033-034-041-042-049-050-058-059-202100-
EAST CENTRAL INDIANA

CITY           SKY/WX    TMP DP  RH WIND       PRES   REMARKS
MUNCIE         CLOUDY    51  42  71 W22G38    29.56R

$$

INZ060-061-067>069-081>083-085>088-202100-
SOUTHWEST INDIANA

CITY           SKY/WX    TMP DP  RH WIND       PRES   REMARKS
EVANSVILLE     CLOUDY    60  39  45 W12G25    29.72R
HUNTINGBURG *+ PTSUNNY   57  39  51 W15G28    29.70R
WASHINGTON +   CLOUDY    55  37  49 W17G25    29.69R

$$

INZ062-063-066-070>080-084-089>092-202100-
SOUTH CENTRAL AND SOUTHEAST INDIANA

CITY           SKY/WX    TMP DP  RH WIND       PRES   REMARKS
BEDFORD +      LGT RAIN  57  41  54 W17G25    29.65R
BLOOMINGTON    PTSUNNY   56  39  53 W15G28    29.64R
MADISON *+     CLOUDY    55  41  58 SW13      29.66S
NORTH VERNON + CLOUDY    57  41  54 W18G25    29.63R

$$




USA.gov is the U.S. government's official web portal to all federal, state and local government web resources and services.